Cork, Ireland

2:05 AM IST on May 25, 2017 (GMT +0100)
Cork

Weather History for EICK - December, 2012

Change the Weather History Date:

Sunday, December 23, 2012

  Actual Average Record
Temperature  
Mean Temperature 46 °F -  
Max Temperature 49 °F 46 °F 53 °F (1997)
Min Temperature 42 °F 37 °F 19 °F (2010)
Degree Days  
Heating Degree Days 20    
Moisture  
Dew Point 45 °F    
Average Humidity 94    
Maximum Humidity 100    
Minimum Humidity 87    
Precipitation  
Precipitation 0.00 in 0.19 in - ()
Sea Level Pressure  
Sea Level Pressure 29.52 in    
Wind  
Wind Speed 15 mph ()    
Max Wind Speed 29 mph    
Max Gust Speed 48 mph    
Visibility 6.5 miles    
Events Rain    
Averages and records for this station are not official NWS values.
T = Trace of Precipitation, MM = Missing Value Source: Averaged Metar Reports

Daily Weather History Graph

Daily Weather History Graph

Search for Another Location

Airport or City:

Trip Planner

Search our weather history database for the weather conditions in past years. The results will help you decide how hot, cold, wet, or windy it might be!

Date:

Astronomy

Dec. 23, 2012 Rise Set
Actual Time 8:40 AM GMT 4:26 PM GMT
Civil Twilight 7:59 AM GMT 5:07 PM GMT
Nautical Twilight 7:15 AM GMT 5:50 PM GMT
Astronomical Twilight 6:34 AM GMT 6:31 PM GMT
Moon 1:25 PM GMT (12/23) 3:51 AM GMT (12/23)
Length of Visible Light 9h 07m
Length of Day
7h 46m
Waxing Gibbous, 80% of the Moon is Illuminated
Dec 23
Waxing Gibbous
Dec 28
Full
Jan 5
Last Quarter
Jan 11
New
Jan 18
First Quarter

Hourly Weather History & Observations

Time (GMT) Temp. Windchill Dew Point Humidity Pressure Visibility Wind Dir Wind Speed Gust Speed Precip Events Conditions
12:00 AM 50 °F - 48 °F 92% 29.32 in 12 mi SW 26.8 mph - - Rain Light Rain
12:00 AM 50.0 °F - 48.2 °F 94% 29.30 in 6.2 mi SW 27.6 mph 48.3 mph N/A   Mostly Cloudy
12:30 AM 50.0 °F - 48.2 °F 94% 29.30 in 6.2 mi SW 28.8 mph 41.4 mph N/A   Mostly Cloudy
1:00 AM 50.0 °F - 46.4 °F 87% 29.33 in 6.2 mi SW 26.5 mph 40.3 mph N/A   Mostly Cloudy
1:30 AM 48.2 °F - 44.6 °F 87% 29.33 in 6.2 mi WSW 28.8 mph 42.6 mph N/A   Mostly Cloudy
2:00 AM 48.2 °F - 44.6 °F 87% 29.36 in 6.2 mi WSW 23.0 mph 35.7 mph N/A   Mostly Cloudy
2:30 AM 46.4 °F 39.0 °F 42.8 °F 87% 29.39 in 6.2 mi WSW 19.6 mph - N/A   Scattered Clouds
3:00 AM 46.4 °F 39.2 °F 42.8 °F 87% 29.42 in 6.2 mi WSW 18.4 mph - N/A   Scattered Clouds
3:30 AM 44.6 °F 37.2 °F 42.8 °F 93% 29.42 in 6.2 mi WSW 17.3 mph - N/A   Scattered Clouds
4:00 AM 44.6 °F 37.4 °F 42.8 °F 93% 29.44 in 6.2 mi WSW 16.1 mph - N/A   Scattered Clouds
4:30 AM 44.6 °F 38.4 °F 42.8 °F 93% 29.44 in 6.2 mi SW 12.7 mph - N/A   Scattered Clouds
5:00 AM 44.6 °F 38.4 °F 42.8 °F 93% 29.47 in 6.2 mi WSW 12.7 mph - N/A   Scattered Clouds
5:30 AM 44.6 °F 37.8 °F 41.0 °F 87% 29.47 in 6.2 mi SW 15.0 mph - N/A   Scattered Clouds
6:00 AM 43 °F - 42 °F 93% 29.52 in 12 mi WSW 11.2 mph - -   Partly Cloudy
6:00 AM 42.8 °F 37.0 °F 41.0 °F 93% 29.47 in 6.2 mi WSW 10.4 mph - N/A   Scattered Clouds
6:30 AM 42.8 °F 36.6 °F 41.0 °F 93% 29.50 in 6.2 mi WSW 11.5 mph - N/A   Scattered Clouds
7:00 AM 42.8 °F 37.0 °F 41.0 °F 93% 29.50 in 6.2 mi SW 10.4 mph - N/A   Scattered Clouds
7:30 AM 42.8 °F 36.6 °F 41.0 °F 93% 29.50 in 6.2 mi SW 11.5 mph - N/A   Scattered Clouds
8:00 AM 42.8 °F 36.2 °F 41.0 °F 93% 29.53 in 6.2 mi SW 12.7 mph - N/A   Scattered Clouds
8:30 AM 42.8 °F 37.0 °F 42.8 °F 100% 29.53 in 6.2 mi SW 10.4 mph - N/A   Partly Cloudy
9:00 AM 44.6 °F 38.8 °F 42.8 °F 93% 29.53 in 6.2 mi SW 11.5 mph - N/A   Partly Cloudy
9:30 AM 44.6 °F 39.2 °F 42.8 °F 93% 29.56 in 6.2 mi WSW 10.4 mph - N/A   Scattered Clouds
10:00 AM 44.6 °F 39.7 °F 42.8 °F 93% 29.56 in 6.2 mi WSW 9.2 mph - N/A   Mostly Cloudy
10:30 AM 44.6 °F 39.7 °F 44.6 °F 100% 29.59 in 6.2 mi SW 9.2 mph - N/A   Mostly Cloudy
11:00 AM 44.6 °F 39.7 °F 42.8 °F 93% 29.59 in 6.2 mi WSW 9.2 mph - N/A   Mostly Cloudy
11:30 AM 46.4 °F 41.9 °F 44.6 °F 93% 29.59 in 6.2 mi SW 9.2 mph - N/A   Mostly Cloudy
12:00 PM 46 °F - 44 °F 89% 29.62 in 22 mi SSW 8.9 mph - -   Scattered Clouds
12:00 PM 46.4 °F 41.9 °F 44.6 °F 93% 29.59 in 6.2 mi SSW 9.2 mph - N/A   Mostly Cloudy
12:30 PM 46.4 °F 41.9 °F 44.6 °F 93% 29.62 in 6.2 mi SW 9.2 mph - N/A   Mostly Cloudy
1:00 PM 46.4 °F 42.9 °F 44.6 °F 93% 29.59 in 6.2 mi SW 6.9 mph - N/A   Mostly Cloudy
1:30 PM 46.4 °F 41.1 °F 44.6 °F 93% 29.59 in 6.2 mi SSW 11.5 mph - N/A   Mostly Cloudy
2:00 PM 48.2 °F - 46.4 °F 93% 29.59 in 6.2 mi SSW 11.5 mph - N/A   Mostly Cloudy
2:30 PM 48.2 °F - 46.4 °F 93% 29.59 in 6.2 mi SSW 8.1 mph - N/A   Mostly Cloudy
3:00 PM 48.2 °F - 46.4 °F 93% 29.59 in 6.2 mi SSW 8.1 mph - N/A   Mostly Cloudy
3:30 PM 48.2 °F - 46.4 °F 93% 29.59 in 6.2 mi SW 10.4 mph - N/A   Mostly Cloudy
4:00 PM 46.4 °F 42.9 °F 44.6 °F 93% 29.59 in 6.2 mi SSW 6.9 mph - N/A   Mostly Cloudy
4:30 PM 46.4 °F 42.4 °F 44.6 °F 93% 29.59 in 6.2 mi SSW 8.1 mph - N/A   Scattered Clouds
5:00 PM 44.6 °F 40.7 °F 44.6 °F 100% 29.59 in 6.2 mi SSW 6.9 mph - N/A   Mostly Cloudy
5:30 PM 44.6 °F 40.7 °F 44.6 °F 100% 29.59 in 6.2 mi SSW 6.9 mph - N/A   Mostly Cloudy
6:00 PM 46 °F - 45 °F 96% 29.62 in 12 mi South 4.5 mph - -   Mostly Cloudy
6:00 PM 46.4 °F 44.3 °F 44.6 °F 93% 29.59 in 6.2 mi South 4.6 mph - N/A   Mostly Cloudy
6:30 PM 44.6 °F 41.4 °F 44.6 °F 100% 29.59 in 6.2 mi South 5.8 mph - N/A   Mostly Cloudy
7:00 PM 46.4 °F 43.5 °F 46.4 °F 100% 29.59 in 6.2 mi SSW 5.8 mph - N/A   Mostly Cloudy
7:30 PM 46.4 °F 41.5 °F 46.4 °F 100% 29.59 in 6.2 mi South 10.4 mph - N/A   Mostly Cloudy
8:00 PM 46.4 °F 41.9 °F 46.4 °F 100% 29.59 in 6.2 mi South 9.2 mph - N/A   Mostly Cloudy
8:30 PM 46.4 °F 42.4 °F 46.4 °F 100% 29.56 in 6.2 mi South 8.1 mph - N/A   Mostly Cloudy
9:00 PM 46.4 °F 41.9 °F 46.4 °F 100% 29.56 in 6.2 mi South 9.2 mph - N/A   Mostly Cloudy
9:30 PM 46.4 °F 42.4 °F 46.4 °F 100% 29.56 in 6.2 mi South 8.1 mph - N/A   Mostly Cloudy
10:00 PM 48.2 °F - 48.2 °F 100% 29.56 in 6.2 mi South 12.7 mph - N/A   Mostly Cloudy
10:30 PM 48.2 °F - 48.2 °F 100% 29.53 in 6.2 mi South 12.7 mph - N/A   Mostly Cloudy
11:00 PM 48.2 °F - 48.2 °F 100% 29.53 in 6.2 mi South 12.7 mph - N/A   Mostly Cloudy
11:30 PM 48.2 °F - 48.2 °F 100% 29.53 in 6.2 mi South 13.8 mph - N/A   Mostly Cloudy